Wetbulb
68.13 68.87 69.47 69.96 71.37 72.32 73.35 73.43 73.46 72.22 73.27 73.46 72.97 71.03 71.51 71.78 71.26 68.81 68.81 69.66 69.10 68.12 67.97 68.01 70.28 69.99 69.99 70.09 70.12 70.08 71.12 69.75 69.35
67.86 68.93 69.94 70.03 71.28 73.14 72.97 73.25 72.68 72.00 73.34 73.53 72.20 70.96 72.73 72.12 71.61 71.07 70.23 70.84 70.70 68.83 70.21 69.00 69.23 69.55 69.63 70.11 69.93 69.80 70.57 68.35 69.21
66.52 69.56 70.47 70.26 70.83 73.09 72.95 73.29 71.87 71.63 72.36 72.44 71.97 71.42 71.66 69.82 69.46 70.39 70.76 70.41 69.96 70.10 70.20 70.24 69.77 69.39 69.37 69.59 69.79 70.60 70.84 69.58 69.85
66.21 68.83 70.54 69.92 70.98 72.48 72.96 72.60 71.15 70.07 71.12 71.38 71.35 71.26 71.14 70.03 69.54 69.64 69.99 69.21 69.21 69.86 70.48 70.43 69.82 69.46 69.03 69.26 69.27 69.70 70.03 69.15 68.67
66.16 70.16 71.25 70.55 71.19 71.88 71.95 70.94 70.58 69.42 69.47 69.94 70.46 70.68 70.56 69.55 69.78 69.68 69.04 69.03 69.00 69.73 69.31 70.02 69.59 69.35 69.29 68.92 68.94 70.00 68.62 67.81 67.74
66.36 69.67 71.06 70.67 71.11 71.57 71.95 70.41 71.58 69.27 68.68 68.81 69.31 70.05 69.66 69.46 69.37 69.35 69.54 69.40 69.26 69.18 68.87 69.04 69.10 69.45 68.88 68.61 68.70 68.39 68.51 68.41 67.21
65.46 68.45 70.47 70.39 70.17 71.53 72.77 71.76 71.95 69.99 68.83 68.70 68.61 68.62 68.17 68.90 69.22 69.80 69.47 69.84 69.42 69.48 69.60 69.20 69.03 69.77 69.31 68.49 68.28 68.32 68.22 67.76 67.25
64.37 66.91 69.35 70.71 69.08 70.85 73.32 71.88 72.51 70.39 69.15 69.37 69.01 68.64 68.29 68.58 69.53 70.19 70.22 69.69 69.60 69.44 69.25 68.69 69.00 69.36 68.61 67.86 67.99 66.35 67.67 67.63 66.37
62.07 64.31 67.95 70.26 70.47 70.11 71.56 71.01 70.19 69.59 68.90 69.13 69.88 69.13 68.52 69.12 69.33 69.62 69.62 69.65 69.31 69.30 68.85 68.91 69.33 67.85 68.27 68.64 66.14 62.12 61.80 63.61 65.01
62.72 63.56 66.48 68.81 70.54 71.66 72.18 70.52 71.49 69.29 68.94 69.58 69.06 69.33 69.40 69.03 69.31 69.29 69.54 68.91 68.68 68.36 68.77 69.93 69.31 67.66 67.41 67.77 68.66 60.59 62.43 63.07 64.13
64.58 64.90 65.21 68.48 69.93 70.98 71.22 71.13 70.39 69.91 68.90 70.20 69.90 69.35 69.13 69.22 69.28 69.02 69.38 69.12 68.68 69.13 69.12 69.49 68.59 68.00 68.21 67.88 66.92 59.51 60.48 62.01 64.30
66.13 67.17 67.83 68.84 70.44 71.06 71.83 70.85 70.49 70.00 68.31 68.60 68.51 68.64 69.03 69.22 69.04 68.96 69.11 68.32 68.83 69.29 69.21 68.03 67.41 68.02 67.15 68.38 68.01 58.12 58.28 61.69 64.26
66.99 68.15 69.45 69.81 70.71 71.12 70.86 70.43 67.64 68.89 68.18 68.87 68.43 69.15 68.83 69.39 69.31 69.07 68.66 69.37 69.48 69.34 69.09 66.73 65.78 65.76 66.92 63.62 67.65 61.77 56.55 59.46 63.31
68.33 69.19 70.12 70.94 70.79 70.07 72.07 70.90 70.61 70.49 69.76 68.83 70.03 69.26 69.12 70.02 69.76 70.76 70.20 69.98 65.51 67.68 67.82 67.57 66.82 65.37 66.98 66.87 64.81 62.34 56.84 55.27 63.30
67.86 68.59 69.39 70.15 69.55 69.57 70.04 71.42 71.92 71.08 72.01 72.92 71.75 71.33 69.86 70.38 71.49 68.56 66.81 70.01 68.82 68.46 67.88 66.69 65.20 64.15 63.60 59.80 63.06 59.70 57.68 54.89 53.91
67.94 68.68 69.04 69.62 69.03 69.69 70.83 71.27 71.43 70.36 72.72 72.31 71.29 71.46 71.35 70.55 70.05 67.99 67.67 68.92 69.16 66.01 67.00 66.23 59.53 60.90 60.65 61.86 61.04 63.06 55.84 54.54 53.03
68.01 68.50 68.41 68.59 68.74 68.39 69.23 70.80 71.06 71.34 71.41 71.74 71.16 71.15 69.70 69.56 69.75 68.49 68.82 68.09 66.28 64.24 63.26 60.97 61.35 60.78 61.13 59.33 61.81 60.33 59.76 59.86 60.38
68.29 68.43 68.59 68.71 68.00 67.74 68.12 69.37 69.50 69.99 70.49 70.98 69.46 68.47 67.60 66.94 66.18 66.84 66.29 67.54 62.67 62.74 58.50 56.13 59.58 59.81 60.30 59.38 59.59 55.74 46.01 46.66 54.80
67.20 67.16 66.98 67.49 67.24 66.40 67.63 68.01 68.32 68.42 69.30 68.72 67.86 66.53 65.86 64.87 64.36 63.90 63.18 62.33 60.51 46.02 46.29 43.40 42.15 42.34 48.05 55.38 45.77 42.48 41.20 42.24 41.91
63.71 65.93 64.91 65.00 65.07 65.91 66.86 67.17 67.20 67.37 67.96 67.36 66.79 65.78 64.81 63.50 61.58 62.16 62.75 63.65 63.50 60.64 52.22 45.43 43.31 42.73 43.30 43.02 42.10 41.62 41.28 42.39 44.14
MSLP
1002.17 1003.30 1004.36 1005.41 1006.47 1007.86 1009.48 1010.37 1011.20 1011.95 1012.98 1013.53 1013.94 1014.28 1014.64 1015.00 1015.29 1015.04 1015.01 1014.87 1015.41 1015.30 1015.02 1014.82 1015.11 1015.22 1015.07 1014.92 1014.80 1014.62 1014.49 1014.29 1013.98
1000.96 1002.45 1003.99 1004.97 1006.07 1007.52 1009.13 1010.08 1010.99 1011.64 1012.42 1013.05 1013.59 1013.91 1014.51 1014.82 1015.07 1015.26 1015.21 1015.44 1015.60 1015.19 1015.22 1014.81 1014.92 1015.10 1015.04 1014.81 1014.64 1014.58 1014.57 1013.99 1013.94
1000.92 1001.41 1003.26 1004.55 1005.54 1007.09 1008.59 1009.59 1010.65 1011.36 1011.95 1012.57 1013.16 1013.55 1013.92 1014.05 1014.43 1014.82 1015.13 1015.38 1015.44 1015.44 1015.33 1015.26 1015.20 1015.08 1014.76 1014.50 1014.31 1014.26 1014.16 1013.85 1013.60
1000.72 1001.09 1002.69 1004.12 1005.15 1006.62 1008.05 1009.13 1010.06 1010.85 1011.46 1012.05 1012.67 1013.17 1013.50 1013.93 1014.25 1014.42 1014.75 1015.04 1015.05 1014.98 1014.97 1015.01 1014.97 1014.84 1014.61 1014.31 1014.12 1013.82 1013.73 1014.05 1013.63
1000.79 1001.13 1002.50 1003.66 1004.57 1005.93 1007.38 1008.51 1009.30 1010.17 1010.73 1011.29 1011.93 1012.38 1013.01 1013.59 1014.02 1014.29 1014.46 1014.65 1014.72 1014.70 1014.65 1014.63 1014.59 1014.44 1014.20 1013.94 1013.68 1013.60 1013.46 1013.48 1013.35
1000.60 1001.41 1002.26 1003.21 1003.96 1005.11 1006.65 1007.83 1008.69 1009.43 1010.01 1010.38 1010.95 1011.72 1012.53 1013.12 1013.66 1013.96 1014.20 1014.40 1014.42 1014.44 1014.37 1014.27 1014.11 1013.95 1013.69 1013.47 1013.21 1013.17 1013.29 1012.99 1013.23
1000.40 1001.02 1001.71 1002.59 1003.41 1004.27 1005.90 1007.21 1008.29 1009.13 1009.53 1009.84 1010.45 1011.15 1011.82 1012.49 1013.12 1013.58 1013.79 1013.88 1014.05 1014.06 1013.99 1013.83 1013.71 1013.50 1013.29 1013.08 1012.84 1012.58 1012.49 1012.77 1012.84
1000.24 1000.79 1001.39 1002.06 1002.91 1003.74 1005.30 1006.78 1007.93 1008.91 1009.29 1009.87 1010.31 1010.97 1011.69 1012.17 1012.64 1013.09 1013.37 1013.53 1013.59 1013.55 1013.51 1013.40 1013.27 1013.02 1012.66 1012.43 1012.13 1011.63 1012.22 1012.33 1012.25
1000.22 1000.54 1001.15 1001.84 1002.70 1003.72 1004.98 1006.39 1007.62 1008.56 1009.00 1009.54 1010.37 1010.98 1011.39 1011.82 1012.16 1012.51 1012.78 1012.86 1012.93 1012.92 1012.93 1012.86 1012.66 1012.46 1012.30 1011.99 1011.67 1012.00 1012.08 1012.18 1012.08
1000.12 1000.16 1000.57 1001.47 1002.21 1003.28 1004.48 1005.97 1007.28 1008.06 1008.62 1009.25 1009.87 1010.55 1011.02 1011.39 1011.74 1012.01 1012.21 1012.29 1012.39 1012.56 1012.55 1012.37 1012.17 1012.17 1012.02 1011.81 1011.53 1011.87 1011.82 1011.85 1011.80
1000.02 1000.01 1000.25 1001.01 1001.95 1002.97 1004.24 1005.62 1006.84 1007.69 1008.10 1008.82 1009.44 1010.03 1010.53 1010.90 1011.20 1011.45 1011.59 1011.70 1011.89 1012.05 1012.00 1011.87 1011.90 1011.84 1011.62 1011.33 1011.20 1011.33 1011.48 1011.61 1011.52
1000.01 1000.15 1000.25 1000.71 1001.64 1002.60 1004.00 1005.28 1006.28 1007.16 1007.58 1008.14 1008.88 1009.45 1009.88 1010.20 1010.49 1010.72 1010.91 1011.06 1011.17 1011.39 1011.32 1011.45 1011.38 1011.13 1011.01 1010.69 1010.67 1010.77 1010.89 1011.20 1010.87
1000.09 1000.39 1000.74 1001.21 1001.77 1002.65 1004.11 1005.06 1005.64 1006.54 1007.11 1007.70 1008.14 1008.71 1009.13 1009.45 1009.74 1009.97 1010.14 1010.44 1011.02 1011.46 1011.54 1011.07 1010.67 1010.51 1010.38 1010.43 1010.20 1009.89 1010.20 1010.64 1010.21
1000.47 1000.71 1001.20 1001.66 1002.16 1002.98 1003.98 1004.79 1005.26 1005.86 1006.47 1007.02 1007.49 1008.10 1008.43 1008.75 1009.11 1009.43 1009.71 1010.11 1011.05 1012.66 1011.03 1010.76 1010.51 1010.41 1010.39 1010.53 1010.90 1010.29 1010.45 1010.40 1010.03
1000.64 1000.90 1001.51 1002.08 1002.62 1003.12 1003.96 1004.71 1005.34 1005.81 1006.24 1006.76 1007.36 1007.79 1008.01 1008.26 1008.56 1008.98 1009.01 1009.66 1010.12 1010.13 1010.25 1010.33 1010.35 1010.37 1010.14 1010.71 1010.83 1010.11 1009.97 1010.38 1010.03
1000.58 1000.87 1001.45 1002.04 1002.61 1003.31 1003.84 1004.51 1005.37 1006.01 1006.46 1006.93 1007.23 1007.51 1007.77 1008.11 1008.61 1008.90 1009.16 1009.38 1009.98 1009.85 1009.88 1010.22 1011.01 1010.65 1009.64 1010.11 1009.08 1009.76 1009.84 1009.88 1009.64
1000.63 1001.01 1001.55 1002.08 1002.63 1003.26 1003.97 1004.83 1005.72 1006.51 1006.96 1007.06 1007.17 1007.31 1007.81 1008.32 1008.69 1009.01 1008.86 1009.43 1009.19 1009.35 1009.74 1010.19 1009.65 1009.95 1009.99 1010.26 1009.85 1009.63 1009.87 1009.93 1009.56
1001.39 1001.98 1002.42 1003.00 1003.57 1003.91 1004.35 1005.36 1006.07 1006.54 1006.93 1007.23 1007.56 1007.63 1007.86 1008.16 1008.19 1008.36 1008.44 1009.10 1010.02 1010.25 1011.23 1011.49 1011.27 1011.08 1010.77 1010.48 1010.27 1011.13 1011.76 1011.59 1010.66
1002.44 1003.06 1003.98 1004.41 1003.90 1004.71 1005.44 1005.80 1006.43 1006.96 1007.30 1007.59 1007.76 1007.68 1007.69 1007.42 1007.39 1007.61 1007.88 1009.32 1010.39 1011.72 1012.10 1012.40 1012.77 1012.59 1012.20 1011.84 1012.11 1012.09 1011.90 1011.60 1011.20
1003.43 1003.67 1003.88 1004.73 1005.21 1005.06 1006.27 1006.35 1006.75 1007.30 1007.66 1007.88 1008.02 1008.00 1007.80 1007.58 1007.75 1007.70 1008.33 1009.14 1009.98 1010.69 1012.41 1012.98 1013.17 1013.04 1012.73 1012.87 1012.81 1012.33 1011.99 1011.45 1011.09
Wind_Speed
20 21 19 20 19 18 17 16 15 13 12 10 8 6 4 1 3 5 4 3 5 6 6 6 5 5 6 8 8 8 8 8 8
21 22 19 20 20 19 18 17 16 14 13 10 9 7 5 3 4 4 6 5 5 7 3 6 4 6 8 8 8 7 8 8 6
13 21 21 19 19 19 18 17 15 14 13 11 9 7 5 4 3 4 4 5 6 6 7 7 8 8 9 9 9 8 7 8 7
11 17 19 19 19 20 18 17 16 15 13 12 9 7 5 3 4 5 4 6 6 6 7 7 9 9 10 10 10 10 7 9 11
9 13 18 20 20 20 19 18 17 16 14 12 10 8 5 5 5 5 5 6 7 7 8 8 9 10 11 11 10 11 9 11 10
11 13 18 19 19 20 19 19 16 16 14 13 11 9 7 6 6 6 6 6 6 7 8 9 10 10 11 11 12 9 11 10 10
10 14 18 19 18 20 19 17 15 14 13 11 10 6 6 6 6 7 7 7 6 7 8 9 10 10 11 10 12 12 12 9 9
8 12 16 19 20 17 17 17 15 14 12 10 6 7 7 6 6 7 8 7 8 8 9 9 10 10 11 11 11 9 3 8 10
13 14 15 16 19 18 19 18 17 16 13 11 10 8 7 7 6 7 8 8 8 8 9 9 9 9 11 11 10 4 6 6 10
11 14 11 16 18 17 17 18 16 16 13 11 11 10 8 8 8 8 8 8 7 8 9 10 9 9 10 10 11 10 11 12 10
11 13 13 14 15 17 18 18 18 14 13 11 10 10 10 10 9 9 8 8 9 8 8 8 7 9 10 9 9 11 12 12 12
4 8 9 11 14 17 17 17 15 13 12 12 12 12 12 11 10 10 9 9 8 8 7 8 8 10 9 9 10 10 13 10 12
5 4 6 9 13 16 16 16 16 13 12 12 12 13 12 11 10 9 9 9 7 6 8 9 9 9 8 7 10 7 10 9 9
6 7 10 12 14 14 14 13 11 11 12 13 14 13 12 10 9 8 8 7 4 12 8 8 9 9 9 10 20 3 4 3 6
9 12 12 14 13 13 13 11 8 8 9 9 9 10 11 9 7 7 7 6 7 8 7 8 9 9 12 1 15 13 8 5 7
11 13 13 13 12 11 9 8 5 7 7 8 10 10 10 9 5 8 7 9 6 6 10 5 3 13 5 13 5 4 10 8 7
9 10 11 11 11 9 7 3 4 6 7 8 10 10 5 7 8 9 7 5 6 8 5 7 9 6 8 9 15 8 9 9 10
5 5 6 5 3 5 5 4 1 3 3 3 6 7 7 7 7 7 5 5 5 6 8 6 7 8 8 7 9 10 8 7 8
8 8 5 4 7 2 5 6 5 4 1 4 5 6 8 7 5 6 8 8 8 14 11 8 8 7 9 4 9 9 8 8 11
5 8 6 5 3 6 5 5 6 4 2 3 5 6 6 6 3 5 3 2 3 4 6 4 3 5 8 6 7 10 9 8 9
Wind_Direction
200 194 200 194 189 166 175 177 172 167 169 175 183 187 187 195 281 287 288 254 344 302 333 319 360 293 306 303 305 303 297 284 303
190 191 199 199 188 170 182 184 180 170 174 176 185 185 187 214 244 268 317 319 297 278 322 289 267 318 298 293 287 299 307 289 301
239 189 186 203 194 176 185 186 181 178 174 177 185 199 203 236 238 231 243 266 269 289 291 288 297 296 295 298 286 279 278 300 329
217 212 180 203 194 183 186 188 182 184 178 177 187 198 221 245 253 229 222 253 266 274 281 284 282 291 300 298 285 286 290 289 283
211 205 188 204 193 186 186 192 187 190 185 182 191 204 197 222 225 232 252 258 276 288 287 288 284 287 290 290 297 299 298 286 304
184 211 193 203 199 187 189 194 192 192 191 186 198 186 197 213 222 233 241 261 272 284 290 289 289 294 293 296 290 302 294 295 293
268 194 204 202 205 194 190 190 187 198 193 195 194 203 204 216 213 228 245 258 267 271 281 295 294 290 288 287 277 271 261 285 275
252 241 217 202 204 197 181 182 182 195 191 193 219 187 209 225 218 226 246 256 268 278 287 291 293 286 280 281 282 273 5 256 284
255 233 228 228 203 200 182 185 185 192 187 187 192 204 216 231 235 236 250 261 262 275 288 287 284 294 291 289 284 120 202 247 273
272 268 228 214 209 205 174 185 187 187 185 189 192 200 214 226 227 232 242 258 269 284 283 283 298 299 290 288 285 195 213 221 255
266 266 233 208 209 200 177 188 187 186 183 189 194 203 215 221 225 233 238 244 255 266 264 283 303 288 284 287 292 190 224 228 256
262 256 243 206 197 188 173 186 179 181 195 189 200 212 216 218 224 230 236 245 251 255 266 278 276 266 263 261 266 198 221 223 271
135 155 177 179 175 165 167 193 176 189 197 207 213 215 220 221 226 231 240 249 276 279 270 259 258 271 296 291 285 286 201 219 278
145 153 159 168 163 169 183 182 195 187 207 214 218 221 223 220 225 227 248 252 84 262 257 274 279 291 294 298 324 133 283 179 277
173 159 164 173 176 181 174 183 197 231 235 227 226 230 234 235 214 228 237 240 226 242 255 261 260 266 276 81 250 226 170 230 245
198 178 177 184 177 176 187 178 209 249 254 258 248 241 224 237 241 236 252 257 244 254 239 268 8 273 355 305 300 136 151 242 257
198 181 180 183 182 185 186 187 221 237 259 255 244 236 225 246 245 244 258 291 261 247 273 209 278 295 313 358 289 88 10 344 335
150 143 122 135 146 174 123 73 144 221 223 191 229 219 220 226 234 217 233 171 359 339 49 17 324 348 325 341 335 15 343 318 338
146 129 127 107 102 80 97 136 128 106 130 203 237 234 222 239 283 317 300 123 115 53 60 62 75 84 42 13 64 353 339 319 305
119 121 122 104 167 97 164 144 127 140 153 238 240 263 291 283 229 262 46 81 206 198 122 101 83 77 77 44 325 329 324 315 296